TimeCDT,TemperatureF,Dew PointF,Humidity,Sea Level PressureIn,VisibilityMPH,Wind Direction,Wind SpeedMPH,Gust SpeedMPH,PrecipitationIn,Events,Conditions,WindDirDegrees,DateUTC
12:52 AM,84.9,60.1,43,29.97,10.0,NE,11.5,-,N/A,,Clear,50,2013-06-28 05:52:00
1:52 AM,82.9,60.1,46,29.91,10.0,ESE,9.2,-,N/A,,Clear,120,2013-06-28 06:52:00
2:52 AM,82.0,60.1,47,29.85,10.0,SSE,12.7,-,N/A,,Clear,150,2013-06-28 07:52:00
3:52 AM,82.9,62.1,49,29.86,10.0,South,8.1,-,N/A,,Clear,170,2013-06-28 08:52:00
4:52 AM,81.0,63.0,54,29.85,10.0,SSE,3.5,-,N/A,,Mostly Cloudy,160,2013-06-28 09:52:00
5:52 AM,78.1,66.0,66,29.87,10.0,South,9.2,-,N/A,,Mostly Cloudy,190,2013-06-28 10:52:00
6:52 AM,80.1,64.0,58,29.93,10.0,NNE,16.1,-,N/A,,Mostly Cloudy,20,2013-06-28 11:52:00
7:52 AM,80.1,62.1,54,29.94,10.0,NNE,9.2,-,N/A,,Mostly Cloudy,30,2013-06-28 12:52:00
8:52 AM,86.0,63.0,46,29.94,10.0,NNE,12.7,-,N/A,,Mostly Cloudy,30,2013-06-28 13:52:00
9:52 AM,90.0,63.0,40,29.93,10.0,NE,11.5,-,N/A,,Scattered Clouds,50,2013-06-28 14:52:00
10:52 AM,93.9,62.1,35,29.92,10.0,NE,11.5,-,N/A,,Scattered Clouds,40,2013-06-28 15:52:00
11:52 AM,98.1,62.1,30,29.91,10.0,NE,5.8,-,N/A,,Scattered Clouds,40,2013-06-28 16:52:00
12:52 PM,100.9,57.9,24,29.91,10.0,NNE,11.5,24.2,N/A,,Scattered Clouds,30,2013-06-28 17:52:00
1:52 PM,104.0,60.1,24,29.89,10.0,NNE,19.6,25.3,N/A,,Clear,20,2013-06-28 18:52:00
2:52 PM,104.0,57.0,21,29.87,10.0,NNE,13.8,27.6,N/A,,Partly Cloudy,20,2013-06-28 19:52:00
3:52 PM,104.0,59.0,23,29.86,10.0,NNE,15.0,29.9,N/A,,Scattered Clouds,30,2013-06-28 20:52:00
4:52 PM,100.9,62.1,28,29.85,10.0,NE,12.7,25.3,N/A,,Scattered Clouds,40,2013-06-28 21:52:00
5:52 PM,99.0,60.1,28,29.85,10.0,ENE,12.7,23.0,N/A,,Partly Cloudy,70,2013-06-28 22:52:00
6:52 PM,98.1,57.9,26,29.84,10.0,ENE,13.8,-,N/A,,Partly Cloudy,60,2013-06-28 23:52:00
7:52 PM,95.0,57.0,28,29.85,10.0,ENE,11.5,-,N/A,,Partly Cloudy,60,2013-06-29 00:52:00
8:52 PM,89.1,57.0,34,29.85,10.0,East,5.8,-,N/A,,Partly Cloudy,80,2013-06-29 01:52:00
9:52 PM,86.0,57.9,38,29.86,10.0,ENE,4.6,-,N/A,,Clear,60,2013-06-29 02:52:00
10:52 PM,84.0,60.1,44,29.86,10.0,East,3.5,-,N/A,,Clear,80,2013-06-29 03:52:00
11:52 PM,82.0,60.1,47,29.85,10.0,Calm,Calm,-,N/A,,Clear,0,2013-06-29 04:52:00